GW0013 Weather Reports


time (UTC)temp
F
wind
direction
speed
knots
gust
knots
rain 1hr
in
rain 24hr
in
rain mn
in
humidity
%
barometer
mb
20260502185827 91 60 2.6 2.6 0.00 0.00 0.00 21 1012.5
20260502185322 91 2 0.9 0.9 0.00 0.00 0.00 21 1012.6
20260502184820 91 327 2.6 4.3 0.00 0.00 0.00 21 1012.8
20260502184315 90 14 1.7 1.7 0.00 0.00 0.00 21 1012.7
20260502183812 89 20 3.5 4.3 0.00 0.00 0.00 23 1012.7
20260502183308 89 69 6.1 7.0 0.00 0.00 0.00 24 1013.0
20260502182803 88 66 0.9 1.7 0.00 0.00 0.00 24 1013.0
20260502182259 88 17 5.2 7.0 0.00 0.00 0.00 24 1013.1
20260502181755 88 62 4.3 7.0 0.00 0.00 0.00 24 1013.1
20260502181249 88 110 2.6 4.3 0.00 0.00 0.00 24 1013.3
20260502180747 88 59 3.5 5.2 0.00 0.00 0.00 24 1013.4
20260502180244 88 74 6.1 8.7 0.00 0.00 0.00 24 1013.4
20260502170208 87 70 3.5 5.2 0.00 0.00 0.00 25 1013.5
20260502164155 86 69 3.5 6.1 0.00 0.00 0.00 22 1013.7
20260502163650 86 261 2.6 2.6 0.00 0.00 0.00 23 1013.3
20260502163147 86 97 0.9 0.9 0.00 0.00 0.00 22 1013.6
20260502162644 84 64 0.9 1.7 0.00 0.00 0.00 21 1013.5
20260502162141 85 19 1.7 1.7 0.00 0.00 0.00 23 1013.6
20260502161638 84 350 0.0 0.0 0.00 0.00 0.00 23 1013.5
20260502161135 84 6 2.6 2.6 0.00 0.00 0.00 22 1013.7
20260502160633 84 351 0.9 1.7 0.00 0.00 0.00 22 1013.6
20260502160131 82 12 0.9 1.7 0.00 0.00 0.00 23 1013.7
20260502152045 82 2 0.0 0.0 0.00 0.00 0.00 21 1013.3
20260502151543 83 35 1.7 2.6 0.00 0.00 0.00 20 1013.4
20260502151040 82 323 0.0 0.9 0.00 0.00 0.00 22 1013.1
20260502150538 81 18 0.9 1.7 0.00 0.00 0.00 21 1013.2
20260502130422 67 351 0.0 0.0 0.00 0.00 0.00 29 1012.0
20260502123405 69 350 0.0 0.0 0.00 0.00 0.00 26 1011.4
20260502122902 70 348 0.0 0.0 0.00 0.00 0.00 26 1011.3
20260502122358 69 348 0.0 0.0 0.00 0.00 0.00 26 1011.3
20260502121856 69 350 0.0 0.0 0.00 0.00 0.00 26 1011.1
20260502121353 69 352 0.0 0.0 0.00 0.00 0.00 26 1010.9
20260502120851 70 359 0.0 0.0 0.00 0.00 0.00 25 1011.1
20260502120347 70 349 0.0 0.0 0.00 0.00 0.00 26 1011.0
20260502115844 70 350 0.0 0.0 0.00 0.00 0.00 26 1011.1
20260502115342 70 352 0.0 0.0 0.00 0.00 0.00 25 1011.1
20260502114838 71 351 0.0 0.0 0.00 0.00 0.00 25 1011.1
20260502114335 71 343 0.0 0.0 0.00 0.00 0.00 25 1011.0
20260502113832 71 4 0.0 0.0 0.00 0.00 0.00 25 1011.0
20260502113329 71 1 0.0 0.0 0.00 0.00 0.00 24 1010.8
20260502112827 71 349 0.0 0.0 0.00 0.00 0.00 25 1010.8
20260502112324 71 337 0.0 0.0 0.00 0.00 0.00 25 1011.0
20260502111822 71 343 0.0 0.0 0.00 0.00 0.00 25 1010.8
20260502111319 71 356 0.0 0.0 0.00 0.00 0.00 25 1010.8
20260502110817 70 0 0.0 0.9 0.00 0.00 0.00 25 1010.8
20260502110314 70 351 0.0 0.0 0.00 0.00 0.00 25 1010.6
20260502105812 70 352 0.0 0.0 0.00 0.00 0.00 25 1011.0
20260502105308 71 355 0.0 0.0 0.00 0.00 0.00 25 1011.0
20260502104806 71 356 0.0 0.0 0.00 0.00 0.00 25 1010.9
20260502104303 70 342 0.0 0.0 0.00 0.00 0.00 25 1010.9
20260502103800 70 349 0.0 0.0 0.00 0.00 0.00 26 1010.8
20260502103258 70 345 0.0 0.0 0.00 0.00 0.00 26 1010.6
20260502102755 70 352 0.0 0.0 0.00 0.00 0.00 26 1010.9
20260502102251 70 350 0.0 0.0 0.00 0.00 0.00 26 1010.7
20260502101749 71 350 0.0 0.0 0.00 0.00 0.00 25 1010.6
20260502101247 71 351 0.0 0.0 0.00 0.00 0.00 25 1010.7
20260502100745 72 351 0.0 0.0 0.00 0.00 0.00 25 1010.5
20260502100244 72 344 0.0 0.0 0.00 0.00 0.00 25 1010.5
20260502091218 75 350 0.0 0.0 0.00 0.00 0.00 23 1010.4
20260502090715 75 349 0.0 0.0 0.00 0.00 0.00 23 1010.3
20260502090212 75 347 0.0 0.9 0.00 0.00 0.00 23 1010.1
20260502071107 77 21 0.0 0.9 0.00 0.00 0.00 18 1009.8
20260502070605 77 6 0.0 0.0 0.00 0.00 0.00 17 1009.8
20260502065601 77 25 0.0 0.9 0.00 0.00 0.00 17 1009.7
20260502065058 78 16 0.9 0.9 0.00 0.00 0.00 16 1009.7
20260502064557 78 343 0.9 0.9 0.00 0.00 0.00 16 1009.7
20260502064054 79 292 0.9 1.7 0.00 0.00 0.00 15 1009.7
20260502063551 80 346 0.9 0.9 0.00 0.00 0.00 15 1009.8
20260502063049 80 289 1.7 1.7 0.00 0.00 0.00 15 1009.5
20260502062546 80 353 0.0 0.0 0.00 0.00 0.00 14 1009.4
20260502062044 80 347 0.0 0.9 0.00 0.00 0.00 15 1009.5
20260502061542 80 319 0.0 0.9 0.00 0.00 0.00 15 1009.4
20260502061039 79 298 2.6 4.3 0.00 0.00 0.00 15 1009.2
20260502060533 79 5 0.0 0.0 0.00 0.00 0.00 15 1009.3
20260502060031 79 291 3.5 5.2 0.00 0.00 0.00 16 1009.2
20260502055528 78 323 1.7 1.7 0.00 0.00 0.00 16 1009.1
20260502055027 77 345 0.0 0.0 0.00 0.00 0.00 17 1009.2
20260502054525 77 349 0.0 0.0 0.00 0.00 0.00 18 1009.0
20260502054022 77 346 0.0 0.0 0.00 0.00 0.00 19 1009.1
20260502053519 78 351 0.0 0.0 0.00 0.00 0.00 19 1009.1
20260502053017 78 333 0.0 0.0 0.00 0.00 0.00 19 1008.9
20260502052515 79 351 0.0 0.0 0.00 0.00 0.00 19 1009.0
20260502052013 79 338 0.0 0.0 0.00 0.00 0.00 19 1009.2
20260502051510 79 351 0.0 0.0 0.00 0.00 0.00 19 1008.9
20260502051008 78 351 0.0 0.0 0.00 0.00 0.00 20 1009.0
20260502050504 77 345 0.0 0.0 0.00 0.00 0.00 22 1009.2
20260502050001 79 330 0.9 1.7 0.00 0.00 0.00 22 1008.8
20260502045457 80 348 0.0 0.0 0.00 0.00 0.00 21 1008.9
20260502044955 78 349 0.0 0.0 0.00 0.00 0.00 22 1008.8
20260502044450 79 334 0.0 0.9 0.00 0.00 0.00 22 1008.9
20260502043947 81 340 0.0 0.0 0.00 0.00 0.00 21 1008.9
20260502043445 81 1 0.9 1.7 0.00 0.00 0.00 20 1008.7
20260502042944 80 187 0.9 1.7 0.00 0.00 0.00 20 1008.7
20260502042442 79 351 0.0 0.0 0.00 0.00 0.00 22 1008.7
20260502041939 80 351 0.0 0.0 0.00 0.00 0.00 22 1008.9
20260502041437 81 339 0.0 0.0 0.00 0.00 0.00 21 1008.4
20260502040933 81 355 0.0 0.0 0.00 0.00 0.00 21 1008.4
20260502040430 81 351 1.7 1.7 0.00 0.00 0.00 21 1008.6
20260502035926 81 359 0.9 0.9 0.00 0.00 0.00 21 1008.6
20260502035423 81 325 0.9 0.9 0.00 0.00 0.00 22 1008.4
20260502034921 82 12 0.9 1.7 0.00 0.00 0.00 21 1008.2
20260502034419 82 10 0.0 0.0 0.00 0.00 0.00 21 1008.4
20260502033917 82 8 0.0 0.0 0.00 0.00 0.00 21 1008.1
20260502033414 83 22 0.9 0.9 0.00 0.00 0.00 20 1008.0
20260502032911 83 8 0.9 0.9 0.00 0.00 0.00 20 1008.3
20260502032407 84 0 0.9 0.9 0.00 0.00 0.00 19 1008.2
20260502031904 84 33 1.7 1.7 0.00 0.00 0.00 19 1008.0
20260502031403 84 341 0.9 0.9 0.00 0.00 0.00 19 1007.8
20260502030901 84 348 0.0 0.0 0.00 0.00 0.00 19 1007.9
20260502030359 84 342 1.7 1.7 0.00 0.00 0.00 19 1007.9
20260502025856 84 347 0.9 0.9 0.00 0.00 0.00 19 1007.6
20260502025353 85 7 0.0 0.9 0.00 0.00 0.00 18 1007.5
20260502024851 85 121 1.7 1.7 0.00 0.00 0.00 18 1007.6
20260502024349 85 348 0.9 1.7 0.00 0.00 0.00 18 1007.5
20260502023847 85 162 1.7 1.7 0.00 0.00 0.00 18 1007.7
20260502023344 85 328 1.7 2.6 0.00 0.00 0.00 18 1007.3
20260502022842 86 277 0.9 0.9 0.00 0.00 0.00 18 1007.4
20260502022338 86 349 2.6 5.2 0.00 0.00 0.00 18 1007.4
20260502021835 86 336 0.9 0.9 0.00 0.00 0.00 18 1007.3
20260502021332 86 26 1.7 2.6 0.00 0.00 0.00 18 1007.3
20260502020829 86 26 0.9 1.7 0.00 0.00 0.00 18 1007.3
20260502020327 86 0 1.7 1.7 0.00 0.00 0.00 18 1007.3
20260502015824 87 326 2.6 4.3 0.00 0.00 0.00 18 1007.2
20260502015321 87 70 0.0 0.9 0.00 0.00 0.00 17 1007.1
20260502014818 87 307 1.7 2.6 0.00 0.00 0.00 17 1007.0
20260502014315 88 348 0.9 1.7 0.00 0.00 0.00 16 1007.2
20260502013811 88 320 0.9 0.9 0.00 0.00 0.00 16 1006.9
20260502013307 88 349 2.6 2.6 0.00 0.00 0.00 16 1007.2
20260502012803 88 1 0.9 0.9 0.00 0.00 0.00 16 1007.1
20260502012301 89 348 1.7 1.7 0.00 0.00 0.00 17 1006.9
20260502011758 89 323 0.9 0.9 0.00 0.00 0.00 17 1006.9
20260502011254 89 348 0.9 0.9 0.00 0.00 0.00 17 1007.0
20260502010752 89 298 1.7 1.7 0.00 0.00 0.00 17 1007.1
20260502010248 90 350 0.0 0.0 0.00 0.00 0.00 15 1007.1
20260502005745 90 344 0.9 1.7 0.00 0.00 0.00 16 1007.0
20260502005243 90 22 0.9 0.9 0.00 0.00 0.00 16 1007.1
20260502004740 90 1 0.0 0.9 0.00 0.00 0.00 16 1007.2
20260502004236 90 346 0.9 1.7 0.00 0.00 0.00 16 1007.3
20260502003734 90 279 2.6 4.3 0.00 0.00 0.00 18 1007.2
20260502003231 91 355 0.9 0.9 0.00 0.00 0.00 15 1007.1
20260502002726 91 350 0.0 0.0 0.00 0.00 0.00 16 1007.3
20260502002224 90 347 0.0 0.0 0.00 0.00 0.00 16 1007.3
20260502001721 92 317 1.7 1.7 0.00 0.00 0.00 16 1007.6
20260502001219 92 155 3.5 5.2 0.00 0.00 0.00 17 1007.4
20260502000716 92 355 0.0 0.0 0.00 0.00 0.00 17 1007.4
20260502000215 91 331 5.2 6.1 0.00 0.00 0.00 17 1007.4
20260501235710 91 316 0.9 1.7 0.00 0.00 0.00 17 1007.7
20260501235206 93 43 0.9 1.7 0.00 0.00 0.00 17 1007.6
20260501234702 93 304 0.0 0.9 0.00 0.00 0.00 17 1007.4
20260501234159 93 22 0.9 0.9 0.00 0.00 0.00 18 1007.4
20260501233657 92 340 0.9 0.9 0.00 0.00 0.00 18 1007.6
20260501233154 91 345 0.0 0.0 0.00 0.00 0.00 19 1007.7
20260501232650 91 299 2.6 2.6 0.00 0.00 0.00 19 1007.4
20260501232148 91 73 0.9 0.9 0.00 0.00 0.00 19 1007.7
20260501231645 91 312 0.0 0.0 0.00 0.00 0.00 20 1007.5
20260501231143 92 347 0.9 1.7 0.00 0.00 0.00 20 1007.6
20260501230641 91 343 0.0 0.9 0.00 0.00 0.00 20 1007.6
20260501230139 91 353 0.0 0.0 0.00 0.00 0.00 19 1007.6
20260501225636 91 76 1.7 1.7 0.00 0.00 0.00 20 1007.7
20260501225132 90 296 0.0 1.7 0.00 0.00 0.00 20 1007.8
20260501224629 89 34 2.6 2.6 0.00 0.00 0.00 21 1007.8
20260501224127 91 21 1.7 1.7 0.00 0.00 0.00 21 1007.7
20260501223623 91 325 0.9 1.7 0.00 0.00 0.00 20 1007.8
20260501223120 91 56 0.9 0.9 0.00 0.00 0.00 21 1008.0
20260501222616 90 53 2.6 2.6 0.00 0.00 0.00 21 1008.1
20260501222113 92 33 2.6 2.6 0.00 0.00 0.00 22 1008.1
20260501221609 90 311 0.0 0.9 0.00 0.00 0.00 21 1008.3
20260501221107 89 114 2.6 2.6 0.00 0.00 0.00 22 1008.6
20260501220605 90 11 0.9 0.9 0.00 0.00 0.00 21 1008.2
20260501215558 89 83 2.6 2.6 0.00 0.00 0.00 22 1008.7
20260501215053 89 30 1.7 1.7 0.00 0.00 0.00 21 1008.9
20260501214548 89 345 0.9 2.6 0.00 0.00 0.00 23 1009.0
20260501214044 89 355 0.0 0.9 0.00 0.00 0.00 22 1009.0
20260501213542 89 352 0.0 0.9 0.00 0.00 0.00 22 1009.0
20260501213037 89 81 2.6 4.3 0.00 0.00 0.00 23 1009.2
20260501212534 89 290 0.9 0.9 0.00 0.00 0.00 23 1009.4
20260501212031 89 338 1.7 2.6 0.00 0.00 0.00 22 1009.2
20260501211528 88 330 0.0 0.0 0.00 0.00 0.00 22 1009.4
20260501211026 88 36 1.7 1.7 0.00 0.00 0.00 23 1009.4
20260501210522 89 334 0.9 1.7 0.00 0.00 0.00 23 1009.4
20260501210019 89 333 0.9 0.9 0.00 0.00 0.00 23 1009.6
20260501205515 87 33 0.0 0.0 0.00 0.00 0.00 22 1009.7
20260501205014 89 288 0.9 4.3 0.00 0.00 0.00 22 1009.6
20260501204509 89 341 0.9 0.9 0.00 0.00 0.00 22 1009.8
20260501204005 89 293 5.2 7.0 0.00 0.00 0.00 22 1010.0
20260501203502 87 355 0.0 0.9 0.00 0.00 0.00 22 1009.7
20260501203000 87 309 0.9 1.7 0.00 0.00 0.00 23 1010.0
20260501202456 86 10 0.0 0.9 0.00 0.00 0.00 23 1010.1
20260501201952 87 231 2.6 2.6 0.00 0.00 0.00 23 1009.9
20260501201450 86 70 4.3 6.1 0.00 0.00 0.00 23 1009.9
20260501200947 86 299 2.6 2.6 0.00 0.00 0.00 23 1010.0
20260501200444 88 1 0.0 0.0 0.00 0.00 0.00 23 1010.2
20260501195941 88 2 0.9 0.9 0.00 0.00 0.00 22 1010.1
20260501195438 87 136 1.7 2.6 0.00 0.00 0.00 23 1010.2
20260501194933 86 13 1.7 1.7 0.00 0.00 0.00 23 1010.2
20260501194429 86 87 1.7 2.6 0.00 0.00 0.00 24 1010.4
20260501193925 86 67 1.7 1.7 0.00 0.00 0.00 24 1010.4
20260501193424 85 286 0.9 0.9 0.00 0.00 0.00 24 1010.2
20260501192921 86 9 1.7 1.7 0.00 0.00 0.00 24 1010.6
20260501192418 85 353 0.0 0.0 0.00 0.00 0.00 24 1010.7
20260501191915 84 353 0.9 0.9 0.00 0.00 0.00 25 1010.6
20260501191413 83 45 1.7 2.6 0.00 0.00 0.00 26 1010.7
20260501190909 84 74 2.6 4.3 0.00 0.00 0.00 26 1010.8
20260501190405 85 339 0.9 0.9 0.00 0.00 0.00 26 1010.8